Location: Nairn
(57.5833°N, 3.8667°W)
Time: 09:43:07
(UTC+00:00)

Vanguard 1 - Pass Details

Date: 26 November 2020
Orbit: 649 x 3834 km, 34.3° (Epoch: 15 January)

Event Time Altitude Azimuth Distance (km) Brightness Sun altitude
Rises 12:11:44 0° 258° (WSW) 5,771 14.2 11.3°
Reaches altitude 10° 12:18:50 10° 234° (SW) 5,489 14.6 11.3°
Maximum altitude 12:24:37 13° 213° (SSW) 5,749 15.3 11.2°
Drops below altitude 10° 12:31:15 10° 194° (SSW) 6,424 17.0 11.1°
Sets 12:41:54 0° 172° (S) 7,883 16.3 10.9°
